Weather Roundup
Issued by NWS Chicago, IL

Home | Current Version | Previous Version | Text Only | Print | Product List | Glossary On
Versions: 1 2 3 4 5 6 7 8 9 10 11 12 13 14 15 16 17 18 19 20 21 22 23 24 25 26 27 28 29 30 31 32 33 34 35 36 37 38 39 40 41 42 43 44 45 46 47 48 49 50
000
NZUS59 KLOT 010810
HRRLOT

CHICAGO AREA WEATHER ROUNDUP
NATIONAL WEATHER SERVICE CHICAGO/ROMEOVILLE IL
300 AM CDT SAT NOV 01 2014

NOTE: "FAIR" INDICATES FEW OR NO CLOUDS BELOW 12,000 FEET WITH NO
SIGNIFICANT WEATHER AND/OR OBSTRUCTIONS TO VISIBILITY.

* THESE STATIONS ARE NOT UNDER NWS QUALITY CONTROL. THEY ALSO MAY NOT
  REPORT WEATHER SUCH AS PRECIPITATION OR FOG.

ILZ005-006-012>014-019>023-010900-
NORTHEAST ILLINOIS

CITY           SKY/WX    TMP DP  RH WIND       PRES   REMARKS
OHARE          CLOUDY    35  22  58 N15       30.35R WCI  25
MIDWAY         FLURRIES  39  26  59 N14G22    30.33F
AURORA         CLOUDY    35  20  54 N14       30.37S WCI  26
LANSING*       CLOUDY    38  27  62 NE18G26   30.31S
JOLIET*        CLOUDY    35  22  57 N12G20    30.35S WCI  27
WAUKEGAN       CLOUDY    35  23  61 NW9G18    30.35S WCI  28
DUPAGE AIRPORT CLOUDY    35  21  56 N18       30.35S WCI  24
WHEELING       CLOUDY    36  22  56 N13G20    30.37S
KANKAKEE*      CLOUDY    36  25  64 NW16G22   30.33R
MORRIS*        CLOUDY    35  24  62 N8        30.35S WCI  29
LEWIS AIRPORT* CLOUDY    35  22  58 N9        30.34S WCI  28
NORTHERLY IS     N/A     39  27  62 MISG        N/A
$$

WIZ051-052-058>065-066-070>072-010900-
SOUTHEAST WISCONSIN

CITY           SKY/WX    TMP DP  RH WIND       PRES   REMARKS
MILWAUKEE      MOCLDY    35  22  58 N12       30.38R WCI  27
KENOSHA*       CLOUDY    35  23  61 N10       30.37S WCI  27
RACINE*        CLOUDY    38  24  57 N21G30    30.38S
BURLINGTON     CLOUDY    32  20  61 N10G16    30.38F WCI  24
WAUKESHA       CLOUDY    32  21  64 NW9       30.40S WCI  24
WEST BEND      CLOUDY    32  21  64 NW10      30.40S WCI  24
$$

INZ001>003-010>013-019-020-010900-
NORTHWEST INDIANA

CITY           SKY/WX    TMP DP  RH WIND       PRES   REMARKS
GARY*            N/A    N/A N/A N/A MISG        N/A
MICHIGAN CITY* NOT AVBL
RENSSELAER*    NOT AVBL
VALPARAISO     CLOUDY    33  25  72 NE10      30.29R WCI  25
$$

LMZ740>746-010900-
SOUTHERN LAKE MICHIGAN

STATION/POSITION TIME  SKY/WX   TEMP WIND        PRES    VSBY
                                AIR  DIR/SP/G
                 (UTC)          (F)  (DEG/KT/KT) (MB)    (MI)
HARRISON CRIB    0700            40   10/ 30/ 37   N/A
BURNHAM HARBOR   0800            39  360/ 19/ 26   N/A
CALUMET HARBOR   0800            40  360/ 19/ 26 1025.6R
BURNS HARBOR     NOT AVBL
MICHIGAN CITY    0800            39  350/ 28/ 33   N/A
$$

ABBREVIATIONS USED IN REMARKS
   TC - TEMPERATURE IN CELSIUS
  WCI - WIND CHILL INDEX
   HX - HEAT INDEX
  VSB - VISIBILITY
$$



USA.gov is the U.S. government's official web portal to all federal, state and local government web resources and services.